New Roads False River Regiona, LA

2:39 AM CDT on September 16, 2019 (GMT -0500)
False River

Weather History for KHZR - July, 2019

Change the Weather History Date:

Monday, July 22, 2019

  Actual Average (WUND) Record (WUND)
Temperature  
Mean Temperature 80 °F -  
Max Temperature 89 °F - - (-1)
Min Temperature 71 °F - - (-1)
Cooling Degree Days 15    
Growing Degree Days 30 (Base 50)    
Moisture  
Dew Point 74 °F    
Average Humidity 86    
Maximum Humidity 100    
Minimum Humidity 59    
Precipitation  
Precipitation 0.00 in - - ()
Sea Level Pressure  
Sea Level Pressure 29.98 in    
Wind  
Wind Speed 2 mph (West)    
Max Wind Speed 13 mph    
Max Gust Speed -    
Visibility 9 miles    
Events      
Averages and records for this station are not official NWS values.
T = Trace of Precipitation, MM = Missing Value Source: NWS Daily Summary

Daily Weather History Graph

Daily Weather History Graph

Search for Another Location

Airport or City:

Astronomy

Jul. 22, 2019 Rise Set
Actual Time 6:17 AM CDT 8:07 PM CDT
Civil Twilight 5:50 AM CDT 8:33 PM CDT
Nautical Twilight 5:18 AM CDT 9:06 PM CDT
Astronomical Twilight 4:44 AM CDT 9:40 PM CDT
Moon 11:48 PM CDT (7/22) 11:15 AM CDT (7/22)
Length of Visible Light 14h 43m
Length of Day
13h 49m
Waning Gibbous, 72% of the Moon is Illuminated
Jul 22
Waning Gibbous
Jul 24
Last Quarter
Jul 31
New
Aug 7
First Quarter
Aug 15
Full

Hourly Weather History & Observations

Time (CDT) Temp. Heat Index Dew Point Humidity Pressure Visibility Wind Dir Wind Speed Gust Speed Precip Events Conditions
12:16 AM 73.4 °F - 73.4 °F 100% 29.98 in 10.0 mi SSE 3.5 mph - N/A   Scattered Clouds
12:55 AM 73.4 °F - 73.4 °F 100% 29.98 in 10.0 mi Calm Calm - N/A   Clear
1:16 AM 73.4 °F - 73.4 °F 100% 29.99 in 10.0 mi Calm Calm - N/A   Scattered Clouds
1:36 AM 73.4 °F - 73.4 °F 100% 29.98 in 10.0 mi Calm Calm - N/A   Clear
1:55 AM 73.4 °F - 73.4 °F 100% 29.99 in 7.0 mi Calm Calm - N/A   Scattered Clouds
2:18 AM 73.4 °F - 71.6 °F 94% 29.98 in 7.0 mi Calm Calm - N/A   Scattered Clouds
2:36 AM 71.6 °F - 71.6 °F 100% 29.98 in 7.0 mi Calm Calm - N/A   Clear
2:55 AM 71.6 °F - 71.6 °F 100% 29.98 in 7.0 mi Calm Calm - N/A   Clear
3:15 AM 71.6 °F - 71.6 °F 100% 29.98 in 5.0 mi Calm Calm - N/A   Clear
3:39 AM 71.6 °F - 71.6 °F 100% 29.99 in 5.0 mi Calm Calm - N/A   Scattered Clouds
3:55 AM 71.6 °F - 71.6 °F 100% 29.99 in 7.0 mi Calm Calm - N/A   Mostly Cloudy
4:16 AM 71.6 °F - 71.6 °F 100% 29.99 in 5.0 mi Calm Calm - N/A   Mostly Cloudy
4:35 AM 71.6 °F - 71.6 °F 100% 29.98 in 7.0 mi Calm Calm - N/A   Scattered Clouds
5:17 AM 71.6 °F - 71.6 °F 100% 29.99 in 5.0 mi Calm Calm - N/A   Clear
5:35 AM 71.6 °F - 71.6 °F 100% 29.99 in 5.0 mi SSE 3.5 mph - N/A   Clear
5:56 AM 71.6 °F - 71.6 °F 100% 29.99 in 5.0 mi Calm Calm - N/A   Clear
6:16 AM 71.6 °F - 71.6 °F 100% 29.99 in 5.0 mi Calm Calm - N/A   Clear
6:36 AM 71.6 °F - 71.6 °F 100% 30.00 in 3.0 mi Calm Calm - N/A   Clear
6:55 AM 71.6 °F - 71.6 °F 100% 30.01 in 5.0 mi Calm Calm - N/A   Clear
7:16 AM 73.4 °F - 73.4 °F 100% 30.02 in 5.0 mi Calm Calm - N/A   Clear
7:56 AM 75.2 °F - 73.4 °F 94% 30.02 in 10.0 mi Calm Calm - N/A   Mostly Cloudy
8:15 AM 75.2 °F - 73.4 °F 94% 30.02 in 4.0 mi Calm Calm - N/A   Overcast
8:35 AM 75.2 °F - 73.4 °F 94% 30.02 in 7.0 mi Calm Calm - N/A   Overcast
8:56 AM 77.0 °F - 75.2 °F 94% 30.02 in 10.0 mi Calm Calm - N/A   Mostly Cloudy
9:15 AM 77.0 °F - 75.2 °F 94% 30.02 in 10.0 mi Calm Calm - N/A   Overcast
9:36 AM 78.8 °F - 75.2 °F 89% 30.02 in 10.0 mi Calm Calm - N/A   Mostly Cloudy
9:57 AM 78.8 °F - 75.2 °F 89% 30.02 in 10.0 mi Calm Calm - N/A   Scattered Clouds
10:16 AM 80.6 °F 86.2 °F 75.2 °F 84% 30.02 in 10.0 mi Calm Calm - N/A   Mostly Cloudy
10:35 AM 80.6 °F 86.2 °F 75.2 °F 84% 30.02 in 10.0 mi Calm Calm - N/A   Mostly Cloudy
10:56 AM 82.4 °F 89.5 °F 75.2 °F 79% 30.02 in 10.0 mi Calm Calm - N/A   Mostly Cloudy
11:16 AM 82.4 °F 89.5 °F 75.2 °F 79% 30.02 in 10.0 mi NNW 5.8 mph - N/A   Mostly Cloudy
11:36 AM 82.4 °F 89.5 °F 75.2 °F 79% 30.02 in 10.0 mi WNW 5.8 mph - N/A   Mostly Cloudy
11:56 AM 84.2 °F 92.3 °F 75.2 °F 74% 30.02 in 10.0 mi NNW 4.6 mph - N/A   Scattered Clouds
12:37 PM 84.2 °F 92.3 °F 75.2 °F 74% 30.00 in 10.0 mi NW 6.9 mph - N/A   Scattered Clouds
12:55 PM 84.2 °F 90.9 °F 73.4 °F 70% 29.99 in 10.0 mi WNW 5.8 mph - N/A   Scattered Clouds
1:16 PM 86.0 °F 93.4 °F 73.4 °F 66% 29.99 in 10.0 mi NNW 4.6 mph - N/A   Clear
1:36 PM 86.0 °F 93.4 °F 73.4 °F 66% 29.98 in 10.0 mi Calm Calm - N/A   Scattered Clouds
1:55 PM 87.8 °F 95.6 °F 73.4 °F 62% 29.98 in 10.0 mi Calm Calm - N/A   Scattered Clouds
2:16 PM 87.8 °F 95.6 °F 73.4 °F 62% 29.97 in 10.0 mi Calm Calm - N/A   Scattered Clouds
2:35 PM 87.8 °F 95.6 °F 73.4 °F 62% 29.96 in 10.0 mi Calm Calm - N/A   Scattered Clouds
2:55 PM 87.8 °F 95.6 °F 73.4 °F 62% 29.96 in 10.0 mi WNW 4.6 mph - N/A   Clear
3:15 PM 87.8 °F 95.6 °F 73.4 °F 62% 29.95 in 10.0 mi NW 5.8 mph - N/A   Scattered Clouds
3:36 PM 87.8 °F 95.6 °F 73.4 °F 62% 29.95 in 10.0 mi Calm Calm - N/A   Mostly Cloudy
3:57 PM 89.6 °F 98.2 °F 73.4 °F 59% 29.94 in 10.0 mi NW 3.5 mph - N/A   Mostly Cloudy
4:16 PM 89.6 °F 98.2 °F 73.4 °F 59% 29.93 in 10.0 mi West 3.5 mph - N/A   Scattered Clouds
4:36 PM 87.8 °F 95.6 °F 73.4 °F 62% 29.93 in 10.0 mi WSW 3.5 mph - N/A   Mostly Cloudy
4:55 PM 87.8 °F 95.6 °F 73.4 °F 62% 29.93 in 10.0 mi WSW 3.5 mph - N/A   Overcast
5:16 PM 86.0 °F 96.9 °F 77.0 °F 74% 29.93 in 10.0 mi SW 9.2 mph - N/A   Overcast
5:35 PM 86.0 °F 96.9 °F 77.0 °F 74% 29.93 in 10.0 mi SW 10.4 mph - N/A   Mostly Cloudy
5:56 PM 86.0 °F 96.9 °F 77.0 °F 74% 29.94 in 10.0 mi WSW 10.4 mph - N/A   Scattered Clouds
6:16 PM 84.2 °F 92.3 °F 75.2 °F 74% 29.94 in 10.0 mi WSW 12.7 mph - N/A   Scattered Clouds
6:36 PM 84.2 °F 92.3 °F 75.2 °F 74% 29.93 in 10.0 mi WSW 8.1 mph - N/A   Scattered Clouds
6:56 PM 82.4 °F 89.5 °F 75.2 °F 79% 29.94 in 10.0 mi WSW 6.9 mph - N/A   Clear
7:15 PM 82.4 °F 89.5 °F 75.2 °F 79% 29.93 in 10.0 mi West 8.1 mph - N/A   Scattered Clouds
7:36 PM 80.6 °F 86.2 °F 75.2 °F 84% 29.93 in 10.0 mi West 5.8 mph - N/A   Mostly Cloudy
7:56 PM 80.6 °F 86.2 °F 75.2 °F 84% 29.95 in 10.0 mi West 4.6 mph - N/A   Scattered Clouds
8:36 PM 78.8 °F - 75.2 °F 89% 29.97 in 10.0 mi Calm Calm - N/A   Mostly Cloudy
8:55 PM 78.8 °F - 75.2 °F 89% 29.96 in 10.0 mi WSW 3.5 mph - N/A   Overcast
9:16 PM 78.8 °F - 75.2 °F 89% 29.97 in 10.0 mi Calm Calm - N/A   Scattered Clouds
9:36 PM 78.8 °F - 75.2 °F 89% 29.97 in 10.0 mi Calm Calm - N/A   Clear
9:58 PM 77.0 °F - 75.2 °F 94% 29.97 in 10.0 mi Calm Calm - N/A   Clear
10:16 PM 78.8 °F - 75.2 °F 89% 29.97 in 10.0 mi Calm Calm - N/A   Clear
10:36 PM 77.0 °F - 75.2 °F 94% 29.97 in 10.0 mi Calm Calm - N/A   Clear
10:56 PM 75.2 °F - 75.2 °F 100% 29.96 in 10.0 mi Calm Calm - N/A   Clear
11:18 PM 77.0 °F - 75.2 °F 94% 29.95 in 10.0 mi Calm Calm - N/A   Clear
11:37 PM 75.2 °F - 75.2 °F 100% 29.95 in 10.0 mi Calm Calm - N/A   Clear
11:55 PM 75.2 °F - 75.2 °F 100% 29.95 in 10.0 mi Calm Calm - N/A   Clear